COSMO-SKYMED 1

Last updated on Mon Jun 22 2026 00:02:14 GMT+0000 (Coordinated Universal Time)

1 31598U 07023A 26172.54623949 .00002341 00000+0 20804-3 0 9994 2 31598 97.8853 4.4384 0001612 96.2803 263.8602 14.97118892 30447
UTC large
Height (km)
Speed (km/s)
/
Latitude / Longitude
Inclination (degrees)
Orbital Period (minutes)
Azimuth
Elevation
Range (km)
Doppler Factor

Next 0 passes for location: London (51.5072 / 0.1276)

No passes found over London.
COSMO-SKYMED 1